Location: Martley
(52.2333°N, 2.3667°W)
Time: 20:10:31
(UTC+00:00)

Cosmos 2263 Rocket - Pass Details

Date: 11 December 2019
Orbit: 824 x 848 km, 71.0° (Epoch: 24 January)

Event Time Altitude Azimuth Distance (km) Brightness Sun altitude
Rises 04:39:53 0° 180° (S) 3,357 5.3 -30.5°
Reaches altitude 10° 04:42:28 10° 172° (S) 2,425 4.6 -30.1°
Maximum altitude 04:47:29 36° 108° (ESE) 1,292 3.6 -29.3°
Drops below altitude 10° 04:52:30 10° 44° (NE) 2,435 5.1 -28.6°
Sets 04:55:06 0° 36° (NE) 3,372 5.8 -28.2°
